EW8292 Weather Reports


time (UTC)temp
C
wind
direction
speed
KPH
gust
KPH
rain 1hr
cm
rain 24hr
cm
rain mn
cm
humidity
%
barometer
mb
20260504100531 9 65 0.0 0.0 0.00 0.00 0.00 75 1014.9
20260504081538 8 38 0.0 0.0 0.00 0.00 0.00 76 1015.3
20260504081055 8 38 0.0 0.0 0.00 0.00 0.00 76 1015.4
20260504080542 8 38 0.0 0.0 0.00 0.00 0.00 75 1015.5
20260504050533 7 62 0.0 0.0 0.00 0.00 0.00 71 1015.8
20260504045517 7 62 0.0 0.0 0.00 0.00 0.00 69 1015.7
20260504045055 7 62 0.0 0.0 0.00 0.00 0.00 69 1015.7
20260504044519 7 63 0.0 0.0 0.00 0.00 0.00 67 1015.7
20260504044051 8 62 0.0 0.0 0.00 0.00 0.00 66 1015.6
20260504043537 8 62 0.0 0.0 0.00 0.00 0.00 66 1015.7
20260504043009 8 62 0.0 0.0 0.00 0.00 0.00 67 1015.7
20260504042532 8 62 0.0 0.0 0.00 0.00 0.00 65 1015.7
20260504042051 8 62 0.0 0.0 0.00 0.00 0.00 65 1015.7
20260504041533 8 62 0.0 0.0 0.00 0.00 0.00 64 1015.7
20260504041053 8 62 0.0 0.0 0.00 0.00 0.00 65 1015.7
20260504040516 8 67 0.0 0.0 0.00 0.00 0.00 65 1015.6
20260504040051 8 77 0.0 0.0 0.00 0.00 0.00 66 1015.7
20260504035532 7 10 0.0 0.0 0.00 0.00 0.00 68 1015.7
20260504035049 7 68 0.0 0.0 0.00 0.00 0.00 69 1015.6
20260504034518 7 33 0.0 0.0 0.00 0.00 0.00 71 1015.6
20260504034049 7 33 0.0 0.0 0.00 0.00 0.00 71 1015.6
20260504033515 7 33 0.0 0.0 0.00 0.00 0.00 71 1015.5
20260504033059 6 22 0.0 0.0 0.00 0.00 0.00 73 1015.4
20260504032517 6 22 0.0 0.0 0.00 0.00 0.00 74 1015.4
20260504032039 6 22 0.0 0.0 0.00 0.00 0.00 75 1015.4
20260504031523 6 22 0.0 0.0 0.00 0.00 0.00 78 1015.3
20260504031101 6 22 0.0 0.0 0.00 0.00 0.00 77 1015.2
20260504030523 6 22 0.0 0.0 0.00 0.00 0.00 77 1015.2
20260504030115 6 22 0.0 0.0 0.00 0.00 0.00 75 1015.2
20260504030001 6 22 0.0 0.0 0.00 0.00 0.00 75 1015.2
20260504025529 6 22 0.0 0.0 0.00 0.00 0.00 74 1015.1
20260504025045 6 22 0.0 0.0 0.00 0.00 0.00 74 1015.1
20260504024512 6 22 0.0 0.0 0.00 0.00 0.00 74 1015.1
20260504024051 6 22 0.0 0.0 0.00 0.00 0.00 75 1015.1
20260504023515 6 23 0.0 0.0 0.00 0.00 0.00 74 1015.1
20260504023051 6 22 0.0 0.0 0.00 0.00 0.00 74 1015.1
20260504022516 6 23 0.0 0.0 0.00 0.00 0.00 74 1015.1
20260504022035 6 22 0.0 0.0 0.00 0.00 0.00 72 1015.1
20260504021519 6 22 0.0 0.0 0.00 0.00 0.00 71 1015.1
20260504021054 6 22 0.0 0.0 0.00 0.00 0.00 72 1015.1
20260504020537 6 22 0.0 0.0 0.00 0.00 0.00 71 1015.1
20260504020015 6 22 0.0 0.0 0.00 0.00 0.00 71 1015.1
20260504015539 6 22 0.0 0.0 0.00 0.00 0.00 73 1015.0
20260504015057 6 22 0.0 0.0 0.00 0.00 0.00 72 1014.9
20260504015001 6 22 0.0 0.0 0.00 0.00 0.00 72 1014.9
20260504014544 6 22 0.0 0.0 0.00 0.00 0.00 72 1014.9
20260504014013 7 23 0.0 0.0 0.00 0.00 0.00 72 1014.9
20260504013545 7 22 0.0 0.0 0.00 0.00 0.00 72 1015.0
20260504013009 7 22 0.0 0.0 0.00 0.00 0.00 71 1014.9
20260504012531 7 22 0.0 0.0 0.00 0.00 0.00 70 1014.9
20260504012015 7 22 0.0 0.0 0.00 0.00 0.00 69 1014.8
20260504011535 7 22 0.0 0.0 0.00 0.00 0.00 69 1014.8
20260504011016 7 22 0.0 0.0 0.00 0.00 0.00 67 1014.8
20260504010538 7 22 0.0 0.0 0.00 0.00 0.00 67 1014.7
20260504010057 8 22 0.0 0.0 0.00 0.00 0.00 67 1014.7
20260504005540 8 22 0.0 0.0 0.00 0.00 0.00 67 1014.8
20260504005057 8 23 0.0 0.0 0.00 0.00 0.00 65 1014.7
20260504004537 8 22 0.0 0.0 0.00 0.00 0.00 62 1014.6
20260504004021 8 22 0.0 0.0 0.00 0.00 0.00 62 1014.5
20260504003544 8 22 0.0 0.0 0.00 0.00 0.00 62 1014.5
20260504003036 9 22 0.0 0.0 0.00 0.00 0.00 62 1014.5
20260504002505 9 22 0.0 0.0 0.00 0.00 0.00 61 1014.4
20260504002031 10 22 0.0 0.0 0.00 0.00 0.00 60 1014.4
20260504001551 10 22 0.0 0.0 0.00 0.00 0.00 60 1014.4
20260504001033 10 22 0.0 0.0 0.00 0.00 0.00 58 1014.3
20260504000550 11 22 0.0 0.0 0.00 0.00 0.00 56 1014.3
20260504000015 11 22 0.0 0.0 0.00 0.00 0.00 53 1014.2
20260503235553 11 22 0.0 0.0 0.00 0.00 0.00 52 1014.2
20260503235019 12 22 0.0 0.0 0.00 0.00 0.00 51 1014.2
20260503234555 12 23 0.0 0.0 0.00 0.00 0.00 50 1014.1
20260503234029 13 22 0.0 0.0 0.00 0.00 0.00 49 1014.1
20260503233550 13 22 0.0 0.0 0.00 0.00 0.00 48 1014.1
20260503233015 13 17 0.0 0.0 0.00 0.00 0.00 46 1014.0
20260503232555 14 16 0.0 0.0 0.00 0.00 0.00 45 1014.0
20260503232021 14 175 0.0 0.0 0.00 0.00 0.00 45 1013.8
20260503231557 14 184 0.0 0.0 0.00 0.00 0.00 45 1013.8
20260503231031 15 129 0.0 0.0 0.00 0.00 0.00 44 1013.7
20260503230547 15 129 0.0 0.0 0.00 0.00 0.00 43 1013.8
20260503230031 15 129 0.0 1.6 0.00 0.00 0.00 42 1013.8
20260503225550 15 19 0.0 1.6 0.00 0.00 0.00 42 1013.8
20260503225031 15 62 0.0 0.0 0.00 0.00 0.00 41 1013.9
20260503224524 15 98 0.0 1.6 0.00 0.00 0.00 41 1013.9
20260503224035 15 101 0.0 1.6 0.00 0.00 0.00 41 1014.0
20260503223516 15 63 0.0 1.6 0.00 0.00 0.00 41 1013.9
20260503223037 15 41 0.0 1.6 0.00 0.00 0.00 40 1014.0
20260503222508 15 59 0.0 1.6 0.00 0.00 0.00 41 1014.0
20260503222042 15 41 0.0 12.9 0.00 0.00 0.00 41 1013.9
20260503221511 15 155 0.0 12.9 0.00 0.00 0.00 41 1013.9
20260503221056 15 120 0.0 4.8 0.00 0.00 0.00 40 1014.0
20260503220513 15 101 0.0 14.5 0.00 0.00 0.00 40 1014.0
20260503220035 15 25 1.6 14.5 0.00 0.00 0.00 39 1013.9
20260503215517 15 120 0.0 1.6 0.00 0.00 0.00 40 1014.1
20260503215038 15 56 0.0 3.2 0.00 0.00 0.00 40 1014.1
20260503214518 15 188 0.0 11.3 0.00 0.00 0.00 40 1014.1
20260503214044 15 131 0.0 11.3 0.00 0.00 0.00 39 1014.1
20260503213515 15 95 0.0 8.0 0.00 0.00 0.00 41 1014.0
20260503213051 15 127 0.0 3.2 0.00 0.00 0.00 39 1014.1
20260503212517 16 122 0.0 20.9 0.00 0.00 0.00 40 1014.0
20260503212054 16 30 1.6 20.9 0.00 0.00 0.00 39 1013.9
20260503211518 16 69 0.0 1.6 0.00 0.00 0.00 40 1013.8
20260503211038 16 27 0.0 1.6 0.00 0.00 0.00 40 1013.9
20260503210516 16 108 0.0 1.6 0.00 0.00 0.00 40 1014.0
20260503210039 16 100 0.0 1.6 0.00 0.00 0.00 41 1014.0
20260503205519 16 123 0.0 6.4 0.00 0.00 0.00 40 1014.1
20260503205042 16 115 0.0 6.4 0.00 0.00 0.00 40 1014.0
20260503204521 16 67 0.0 11.3 0.00 0.00 0.00 41 1014.1
20260503204044 16 171 0.0 3.2 0.00 0.00 0.00 40 1014.0
20260503203534 16 96 0.0 3.2 0.00 0.00 0.00 39 1014.1
20260503203050 16 122 0.0 11.3 0.00 0.00 0.00 40 1014.2
20260503202525 16 68 0.0 11.3 0.00 0.00 0.00 40 1014.2
20260503202006 16 141 0.0 8.0 0.00 0.00 0.00 41 1014.4
20260503201531 16 321 0.0 8.0 0.00 0.00 0.00 41 1014.3
20260503201016 16 44 0.0 4.8 0.00 0.00 0.00 41 1014.3
20260503200534 16 77 0.0 12.9 0.00 0.00 0.00 43 1014.3
20260503200057 15 107 0.0 12.9 0.00 0.00 0.00 43 1014.5
20260503195540 15 133 0.0 9.7 0.00 0.00 0.00 42 1014.5
20260503195100 15 255 0.0 3.2 0.00 0.00 0.00 42 1014.6
20260503195010 15 220 0.0 3.2 0.00 0.00 0.00 42 1014.7
20260503194541 16 53 0.0 6.4 0.00 0.00 0.00 44 1014.7
20260503194100 15 131 0.0 22.5 0.00 0.00 0.00 43 1014.8
20260503194009 16 74 0.0 22.5 0.00 0.00 0.00 42 1014.9
20260503193543 15 51 1.6 22.5 0.00 0.00 0.00 43 1014.7
20260503193104 15 207 0.0 11.3 0.00 0.00 0.00 44 1014.9
20260503193008 15 160 0.0 11.3 0.00 0.00 0.00 43 1015.0
20260503192544 15 200 0.0 11.3 0.00 0.00 0.00 44 1015.0
20260503192006 15 95 0.0 1.6 0.00 0.00 0.00 44 1015.0
20260503191544 15 107 0.0 0.0 0.00 0.00 0.00 44 1015.1
20260503191006 15 224 0.0 11.3 0.00 0.00 0.00 45 1015.1
20260503190547 15 111 1.6 11.3 0.00 0.00 0.00 44 1015.1
20260503190028 15 63 0.0 8.0 0.00 0.00 0.00 47 1015.1
20260503185600 14 97 0.0 8.0 0.00 0.00 0.00 44 1015.2
20260503185502 14 171 0.0 8.0 0.00 0.00 0.00 45 1015.2
20260503185047 14 13 0.0 8.0 0.00 0.00 0.00 45 1015.4
20260503184619 14 203 0.0 16.1 0.00 0.00 0.00 44 1015.4
20260503184506 14 90 0.0 16.1 0.00 0.00 0.00 45 1015.4
20260503184043 14 229 0.0 4.8 0.00 0.00 0.00 47 1015.6
20260503183525 14 127 0.0 8.0 0.00 0.00 0.00 46 1015.5
20260503183051 15 105 0.0 20.9 0.00 0.00 0.00 45 1015.6
20260503182533 14 106 3.2 20.9 0.00 0.00 0.00 47 1015.7
20260503182050 14 105 3.2 12.9 0.00 0.00 0.00 47 1015.6
20260503181516 14 131 0.0 11.3 0.00 0.00 0.00 46 1015.5
20260503181052 14 212 1.6 11.3 0.00 0.00 0.00 47 1015.6
20260503180513 14 137 0.0 14.5 0.00 0.00 0.00 48 1015.7
20260503180040 13 175 0.0 22.5 0.00 0.00 0.00 47 1015.8
20260503175521 13 163 3.2 22.5 0.00 0.00 0.00 47 1015.9
20260503175042 13 118 0.0 14.5 0.00 0.00 0.00 47 1015.9
20260503174602 13 141 0.0 14.5 0.00 0.00 0.00 48 1015.8
20260503174508 13 238 0.0 14.5 0.00 0.00 0.00 48 1016.0
20260503174044 13 206 0.0 6.4 0.00 0.00 0.00 48 1016.0
20260503173600 13 108 0.0 6.4 0.00 0.00 0.00 50 1016.1
20260503173502 13 118 0.0 6.4 0.00 0.00 0.00 50 1016.1
20260503173033 13 223 0.0 11.3 0.00 0.00 0.00 49 1016.0
20260503172504 13 229 1.6 11.3 0.00 0.00 0.00 49 1016.2
20260503172028 13 117 0.0 11.3 0.00 0.00 0.00 48 1016.1
20260503171607 13 53 0.0 11.3 0.00 0.00 0.00 50 1016.1
20260503171030 13 233 0.0 3.2 0.00 0.00 0.00 52 1016.2
20260503170554 13 297 0.0 4.8 0.00 0.00 0.00 50 1016.1
20260503151001 11 173 0.0 17.7 0.00 0.00 0.00 51 1016.8
20260503150542 11 219 0.0 12.9 0.00 0.00 0.00 52 1016.9
20260503131018 8 37 0.0 8.0 0.00 0.00 0.00 63 1017.0
20260503130539 8 226 0.0 6.4 0.00 0.00 0.00 66 1017.0
20260503110505 4 106 0.0 0.0 0.00 0.00 0.00 80 1016.0